Location: Miami, Florida
(25.6830°N, 80.1700°W)
Time: 12:36:25
(UTC-04:00)

Hubble Space Telescope - Visible Passes

Search period start: 18 July 2018 00:00
Search period end: 28 July 2018 00:00
Orbit: 537 x 541 km, 28.5° (Epoch: 17 July)

Date Brightness Start Highest point End Pass type
(mag) Time Alt. Az. Time Alt. Az. Time Alt. Az.
18 Jul 3.1 03:56:28 20° ENE 03:56:28 20° ENE 03:57:51 10° ENE visible
18 Jul 1.3 05:31:49 15° WNW 05:35:05 56° N 05:39:09 10° E visible
19 Jul 3.5 03:46:41 16° ENE 03:46:41 16° ENE 03:47:31 10° ENE visible
19 Jul 1.2 05:22:02 19° WNW 05:24:48 58° N 05:28:52 10° E visible
20 Jul 3.8 03:36:58 11° ENE 03:36:58 11° ENE 03:37:12 10° ENE visible
20 Jul 1.1 05:12:20 26° WNW 05:14:30 61° N 05:18:35 10° E visible
21 Jul 1.0 05:02:44 37° WNW 05:04:12 66° N 05:08:18 10° E visible
22 Jul 0.8 04:53:17 60° NW 04:53:53 74° N 04:58:00 10° E visible
23 Jul 0.9 04:43:59 70° E 04:43:59 70° E 04:47:41 10° ESE visible
24 Jul 2.0 04:34:54 35° ESE 04:34:54 35° ESE 04:37:21 10° ESE visible
24 Jul 1.9 06:10:47 10° W 06:14:13 25° SSW 06:17:39 10° SSE visible
25 Jul 3.1 04:26:00 17° ESE 04:26:00 17° ESE 04:26:58 10° ESE visible
25 Jul 2.2 06:01:25 13° WSW 06:03:48 20° SSW 06:06:50 10° SSE visible
25 Jul 2.6 21:24:47 10° SSW 21:26:31 17° S 21:26:31 17° S visible
26 Jul 2.5 05:52:42 15° SW 05:53:23 15° SSW 05:55:47 10° S visible
26 Jul 1.9 21:13:55 10° SSW 21:17:16 24° SSE 21:17:46 23° SE visible
27 Jul 3.0 05:44:06 10° SSW 05:44:06 10° SSW 05:44:12 10° SSW visible
27 Jul 1.6 21:03:12 10° SW 21:06:52 31° SSE 21:08:50 20° ESE visible
27 Jul 3.5 22:43:46 10° WSW 22:44:14 13° WSW 22:44:14 13° WSW visible
